M I D A S
Marine Information and Data Acquisition System
Tripno 336 of the Zeeleeuw from 2002-09-17 06:37:24 to 2002-09-17 14:37:17
Back to CruiseResearch ActivitiesStationsMapUnderway DataData graphs

EquipmentUnitsComment
TimeDGPSUTC
LatitudeDGPSDM.mWGS84
LongitudeDGPSDM.mWGS84
TemperatureSBE03/SBE38deg celciusITS90
ConductivitySBE21S/mITS90
SalinitySBE21 Practical Salinity Units
ChlorophylAChelsea fluorimeterg/lCalibrated in Aceton
Missing or incorrect values are displayed as -999
Sea surface data collected by the RV Zeeleeuw from 2002-09-17 06:37:24 to 2002-09-17 14:37:17
                                                                                    Next 1000 lines
Time Latitude Longitude Temperature Conductivity Salinity ChlorophylA
2002-09-17 06:37:30 51°13.661 2°55.961 -999 0.068093 0.354803  
2002-09-17 06:37:35 51°13.661 2°55.961 -999 0.068093 0.354808  
2002-09-17 06:37:41 51°13.661 2°55.961 -999 0.068093 0.354808  
2002-09-17 06:37:46 51°13.66 2°55.961 -999 0.068093 0.354803  
2002-09-17 06:37:51 51°13.66 2°55.961 -999 0.068093 0.354803  
2002-09-17 06:37:55 51°13.66 2°55.961 -999 0.068093 0.354808  
2002-09-17 06:38:01 51°13.66 2°55.961 -999 0.068093 0.354808  
2002-09-17 06:38:06 51°13.66 2°55.961 -999 0.068093 0.354808  
2002-09-17 06:38:11 51°13.66 2°55.961 -999 0.068093 0.354813  
2002-09-17 06:38:16 51°13.66 2°55.961 -999 0.068093 0.354813  
2002-09-17 06:38:21 51°13.66 2°55.961 -999 0.068093 0.354813  
2002-09-17 06:38:26 51°13.66 2°55.961 -999 0.068093 0.354813  
2002-09-17 06:38:31 51°13.66 2°55.961 -999 0.068093 0.354813  
2002-09-17 06:38:35 51°13.66 2°55.961 -999 0.068093 0.354819  
2002-09-17 06:38:41 51°13.66 2°55.961 -999 0.068093 0.354819  
2002-09-17 06:38:46 51°13.66 2°55.961 -999 0.068093 0.354819  
2002-09-17 06:38:50 51°13.66 2°55.961 -999 0.068093 0.354819  
2002-09-17 06:38:56 51°13.66 2°55.96 -999 0.068093 0.354819  
2002-09-17 06:39:01 51°13.66 2°55.96 -999 0.068093 0.354824  
2002-09-17 06:39:06 51°13.66 2°55.96 -999 0.068093 0.354819  
2002-09-17 06:39:11 51°13.66 2°55.96 -999 0.068093 0.354824  
2002-09-17 06:39:15 51°13.66 2°55.96 -999 0.068093 0.354824  
2002-09-17 06:39:19 51°13.66 2°55.96 -999 0.068093 0.354824  
2002-09-17 06:39:26 51°13.659 2°55.961 -999 0.068093 0.354824  
2002-09-17 06:39:31 51°13.659 2°55.961 -999 0.068093 0.354824  
2002-09-17 06:39:36 51°13.658 2°55.961 -999 0.068093 0.354824  
2002-09-17 06:39:41 51°13.658 2°55.96 -999 0.068093 0.354829  
2002-09-17 06:39:46 51°13.659 2°55.959 -999 0.068093 0.354829  
2002-09-17 06:39:51 51°13.659 2°55.958 -999 0.068093 0.354829  
2002-09-17 06:39:55 51°13.66 2°55.956 -999 0.068093 0.354829  
2002-09-17 06:40:01 51°13.66 2°55.953 -999 0.068093 0.354829  
2002-09-17 06:40:06 51°13.661 2°55.95 -999 0.068093 0.354829  
2002-09-17 06:40:11 51°13.662 2°55.946 -999 0.068093 0.354835  
2002-09-17 06:40:17 51°13.663 2°55.941 -999 0.068093 0.354829  
2002-09-17 06:40:22 51°13.664 2°55.937 -999 0.068093 0.354829  
2002-09-17 06:40:27 51°13.665 2°55.933 -999 0.068093 0.354835  
2002-09-17 06:40:31 51°13.665 2°55.929 -999 0.068093 0.354829  
2002-09-17 06:40:37 51°13.666 2°55.924 -999 0.068093 0.354829  
2002-09-17 06:40:42 51°13.667 2°55.919 -999 0.068093 0.354835  
2002-09-17 06:40:47 51°13.667 2°55.914 -999 0.068093 0.354835  
2002-09-17 06:40:51 51°13.667 2°55.91 -999 0.068093 0.354835  
2002-09-17 06:40:57 51°13.668 2°55.904 -999 0.068093 0.354835  
2002-09-17 06:41:02 51°13.668 2°55.899 -999 0.068093 0.354835  
2002-09-17 06:41:07 51°13.669 2°55.894 -999 0.068093 0.354835  
2002-09-17 06:41:11 51°13.669 2°55.889 -999 0.068093 0.35484  
2002-09-17 06:41:18 51°13.669 2°55.881 -999 0.068093 0.35484  
2002-09-17 06:41:22 51°13.669 2°55.877 -999 0.068093 0.35484  
2002-09-17 06:41:27 51°13.67 2°55.871 -999 0.068093 0.35484  
2002-09-17 06:41:31 51°13.67 2°55.866 -999 0.068093 0.35484  
2002-09-17 06:41:37 51°13.67 2°55.859 -999 0.068093 0.35484  
2002-09-17 06:41:42 51°13.671 2°55.853 -999 0.068093 0.35484  
2002-09-17 06:41:47 51°13.671 2°55.847 -999 0.068093 0.35484  
2002-09-17 06:41:51 51°13.672 2°55.842 -999 0.068093 0.35484  
2002-09-17 06:41:57 51°13.672 2°55.835 -999 0.068093 0.354845  
2002-09-17 06:42:02 51°13.673 2°55.829 -999 0.068093 0.35484  
2002-09-17 06:42:07 51°13.673 2°55.823 -999 0.068093 0.354845  
2002-09-17 06:42:11 51°13.673 2°55.818 -999 0.068093 0.35484  
2002-09-17 06:42:17 51°13.673 2°55.811 -999 0.068093 0.354845  
2002-09-17 06:42:22 51°13.673 2°55.805 -999 0.068093 0.354845  
2002-09-17 06:42:27 51°13.673 2°55.8 -999 0.068093 0.354845  
2002-09-17 06:42:31 51°13.672 2°55.796 -999 0.068093 0.35484  
2002-09-17 06:42:36 51°13.672 2°55.792 -999 0.068093 0.354845  
2002-09-17 06:42:41 51°13.672 2°55.789 -999 0.068093 0.35484  
2002-09-17 06:42:46 51°13.672 2°55.787 -999 0.068093 0.354845  
2002-09-17 06:42:51 51°13.673 2°55.786 -999 0.068093 0.354845  
2002-09-17 06:42:56 51°13.673 2°55.785 -999 0.068093 0.354845  
2002-09-17 06:43:01 51°13.674 2°55.785 -999 0.068093 0.354845  
2002-09-17 06:43:06 51°13.675 2°55.785 -999 0.068093 0.354845  
2002-09-17 06:43:10 51°13.675 2°55.786 -999 0.068093 0.354845  
2002-09-17 06:43:15 51°13.676 2°55.787 -999 0.068093 0.354851  
2002-09-17 06:43:21 51°13.677 2°55.789 -999 0.068093 0.354851  
2002-09-17 06:43:26 51°13.679 2°55.791 -999 0.068093 0.354851  
2002-09-17 06:43:31 51°13.68 2°55.793 -999 0.068093 0.354861  
2002-09-17 06:43:36 51°13.682 2°55.794 -999 0.068093 0.354861  
2002-09-17 06:43:41 51°13.683 2°55.795 -999 0.068093 0.354861  
2002-09-17 06:43:46 51°13.685 2°55.796 -999 0.068093 0.354861  
2002-09-17 06:43:51 51°13.686 2°55.796 -999 0.068093 0.354861  
2002-09-17 06:43:56 51°13.687 2°55.796 -999 0.068093 0.354861  
2002-09-17 06:44:01 51°13.687 2°55.796 -999 0.068093 0.354861  
2002-09-17 06:44:06 51°13.687 2°55.795 -999 0.068093 0.354856  
2002-09-17 06:44:11 51°13.687 2°55.794 -999 0.068093 0.354856  
2002-09-17 06:44:16 51°13.686 2°55.794 -999 0.068093 0.354851  
2002-09-17 06:44:19 51°13.686 2°55.793 -999 0.068093 0.354851  
2002-09-17 06:44:26 51°13.685 2°55.792 -999 0.068093 0.354851  
2002-09-17 06:44:32 51°13.683 2°55.79 -999 0.068093 0.354851  
2002-09-17 06:44:37 51°13.682 2°55.788 -999 0.068093 0.354845  
2002-09-17 06:44:42 51°13.681 2°55.787 -999 0.068093 0.354851  
2002-09-17 06:44:47 51°13.68 2°55.786 -999 0.068093 0.354851  
2002-09-17 06:44:50 51°13.679 2°55.785 -999 0.068093 0.354851  
2002-09-17 06:44:57 51°13.677 2°55.784 -999 0.068093 0.354851  
2002-09-17 06:45:02 51°13.676 2°55.784 -999 0.068093 0.354851  
2002-09-17 06:45:07 51°13.675 2°55.784 -999 0.068093 0.354851  
2002-09-17 06:45:12 51°13.674 2°55.783 -999 0.068093 0.354851  
2002-09-17 06:45:15 51°13.674 2°55.783 -999 0.068093 0.354851  
2002-09-17 06:45:19 51°13.673 2°55.783 -999 0.068093 0.354851  
2002-09-17 06:45:26 51°13.674 2°55.782 -999 0.068093 0.354856  
2002-09-17 06:45:31 51°13.676 2°55.781 -999 0.068093 0.354845  
2002-09-17 06:45:35 51°13.677 2°55.78 -999 0.068093 0.354845  
2002-09-17 06:45:42 51°13.681 2°55.778 -999 0.068093 0.354851  
2002-09-17 06:45:46 51°13.684 2°55.776 -999 0.068093 0.354851  
2002-09-17 06:45:50 51°13.687 2°55.774 -999 0.068093 0.354851  
2002-09-17 06:45:56 51°13.691 2°55.769 -999 0.068093 0.354856  
2002-09-17 06:46:01 51°13.696 2°55.764 -999 0.068093 0.354856  
2002-09-17 06:46:06 51°13.701 2°55.758 -999 0.068093 0.354861  
2002-09-17 06:46:11 51°13.706 2°55.752 -999 0.068093 0.354856  
2002-09-17 06:46:15 51°13.71 2°55.747 -999 0.068093 0.354856  
2002-09-17 06:46:21 51°13.718 2°55.739 -999 0.068093 0.354856  
2002-09-17 06:46:26 51°13.724 2°55.732 -999 0.068093 0.354856  
2002-09-17 06:46:31 51°13.731 2°55.724 -999 0.068093 0.354851  
2002-09-17 06:46:36 51°13.737 2°55.716 -999 0.068093 0.354851  
2002-09-17 06:46:40 51°13.743 2°55.709 -999 0.068093 0.354851  
2002-09-17 06:46:46 51°13.752 2°55.699 -999 0.068093 0.354851  
2002-09-17 06:46:50 51°13.758 2°55.692 -999 0.068093 0.354851  
2002-09-17 06:46:56 51°13.767 2°55.682 -999 0.068093 0.354851  
2002-09-17 06:47:00 51°13.774 2°55.676 -999 0.068093 0.354851  
2002-09-17 06:47:06 51°13.785 2°55.666 -999 0.068093 0.354851  
2002-09-17 06:47:11 51°13.794 2°55.658 -999 0.068093 0.354856  
2002-09-17 06:47:15 51°13.802 2°55.651 -999 0.068093 0.354851  
2002-09-17 06:47:21 51°13.814 2°55.641 -999 0.068093 0.354851  
2002-09-17 06:47:26 51°13.824 2°55.633 -999 0.068093 0.354851  
2002-09-17 06:47:31 51°13.835 2°55.625 -999 0.068093 0.354856  
2002-09-17 06:47:35 51°13.844 2°55.619 -999 0.068093 0.354851  
2002-09-17 06:47:41 51°13.857 2°55.61 -999 0.068093 0.354851  
2002-09-17 06:47:46 51°13.867 2°55.602 -999 0.068093 0.354851  
2002-09-17 06:47:51 51°13.878 2°55.594 -999 0.068093 0.354851  
2002-09-17 06:47:55 51°13.887 2°55.588 -999 0.068093 0.354856  
2002-09-17 06:48:01 51°13.899 2°55.579 -999 0.068093 0.354856  
2002-09-17 06:48:06 51°13.91 2°55.572 -999 0.068093 0.354856  
2002-09-17 06:48:11 51°13.92 2°55.565 -999 0.068093 0.354861  
2002-09-17 06:48:15 51°13.929 2°55.559 -999 0.068093 0.354856  
2002-09-17 06:48:21 51°13.941 2°55.551 -999 0.068093 0.354856  
2002-09-17 06:48:26 51°13.951 2°55.544 -999 0.068093 0.354856  
2002-09-17 06:48:31 51°13.961 2°55.537 -999 0.068093 0.354856  
2002-09-17 06:48:35 51°13.969 2°55.531 -999 0.068093 0.354861  
2002-09-17 06:48:41 51°13.981 2°55.523 -999 0.068093 0.354851  
2002-09-17 06:48:46 51°13.991 2°55.516 -999 0.068093 0.354851  
2002-09-17 06:48:50 51°13.998 2°55.51 -999 0.068093 0.354851  
2002-09-17 06:48:56 51°14.01 2°55.502 -999 0.068093 0.354851  
2002-09-17 06:49:01 51°14.019 2°55.496 -999 0.068093 0.354845  
2002-09-17 06:49:06 51°14.029 2°55.489 -999 0.068093 0.354845  
2002-09-17 06:49:09 51°14.034 2°55.485 -999 0.068093 0.354851  
2002-09-17 06:49:15 51°14.045 2°55.477 -999 0.068093 0.354851  
2002-09-17 06:49:21 51°14.056 2°55.469 -999 0.068093 0.354851  
2002-09-17 06:49:26 51°14.065 2°55.462 -999 0.068093 0.354845  
2002-09-17 06:49:31 51°14.074 2°55.455 -999 0.068093 0.354851  
2002-09-17 06:49:35 51°14.081 2°55.449 -999 0.068093 0.354851  
2002-09-17 06:49:40 51°14.09 2°55.441 33.826812 0.068093 0.354845  
2002-09-17 06:49:46 51°14.101 2°55.433 33.191876 0.068093 0.354845  
2002-09-17 06:49:50 51°14.109 2°55.427 33.191876 0.068093 0.354845  
2002-09-17 06:49:56 51°14.12 2°55.418 32.77529 0.068093 0.354845  
2002-09-17 06:50:01 51°14.13 2°55.411 34.32193 0.068093 0.35484  
2002-09-17 06:50:06 51°14.139 2°55.403 33.65625 0.068093 0.35484  
2002-09-17 06:50:11 51°14.149 2°55.395 32.602808 0.068093 0.35484  
2002-09-17 06:50:16 51°14.159 2°55.387 32.630974 0.068093 0.354845  
2002-09-17 06:50:21 51°14.169 2°55.378 32.630974 0.068093 0.354845  
2002-09-17 06:50:26 51°14.178 2°55.369 32.664548 0.068093 0.354845  
2002-09-17 06:50:31 51°14.187 2°55.359 32.848248 0.068093 0.354845  
2002-09-17 06:50:36 51°14.196 2°55.349 32.218785 0.068093 0.354845  
2002-09-17 06:50:41 51°14.205 2°55.338 32.667513 0.068093 0.354845  
2002-09-17 06:50:46 51°14.214 2°55.327 32.219916 0.068093 0.354845  
2002-09-17 06:50:50 51°14.221 2°55.318 32.219916 0.068093 0.354845  
2002-09-17 06:50:56 51°14.231 2°55.304 32.522141 0.068093 0.354845  
2002-09-17 06:51:00 51°14.238 2°55.294 32.186456 0.068093 0.354845  
2002-09-17 06:51:06 51°14.248 2°55.278 31.96177 0.068093 0.354845  
2002-09-17 06:51:11 51°14.257 2°55.265 31.764911 0.068093 0.354845  
2002-09-17 06:51:16 51°14.265 2°55.251 32.810026 0.068093 0.354845  
2002-09-17 06:51:21 51°14.274 2°55.236 32.810026 0.068093 0.354845  
2002-09-17 06:51:26 51°14.282 2°55.22 32.643144 0.068093 0.354845  
2002-09-17 06:51:31 51°14.289 2°55.204 32.133014 0.068093 0.354845  
2002-09-17 06:51:36 51°14.297 2°55.187 32.224406 0.068093 0.354845  
2002-09-17 06:51:41 51°14.305 2°55.169 32.218202 0.068093 0.354851  
2002-09-17 06:51:46 51°14.312 2°55.15 31.993747 0.068093 0.354845  
2002-09-17 06:51:51 51°14.318 2°55.131 31.993747 0.068093 0.354845  
2002-09-17 06:51:54 51°14.322 2°55.119 31.944126 0.068093 0.354851  
2002-09-17 06:52:01 51°14.332 2°55.091 31.372581 0.068093 0.354845  
2002-09-17 06:52:06 51°14.339 2°55.071 31.826016 0.068093 0.354845  
2002-09-17 06:52:10 51°14.344 2°55.054 32.192457 0.068093 0.354845  
2002-09-17 06:52:15 51°14.35 2°55.033 32.024335 0.068093 0.35484  
2002-09-17 06:52:21 51°14.358 2°55.008 32.024335 0.068093 0.35484  
2002-09-17 06:52:25 51°14.363 2°54.991 32.081183 0.068093 0.35484  
2002-09-17 06:52:31 51°14.37 2°54.964 32.144097 0.068093 0.354845  
2002-09-17 06:52:36 51°14.374 2°54.941 32.053881 0.068093 0.354851  
2002-09-17 06:52:41 51°14.378 2°54.918 31.773047 0.068093 0.354861  
2002-09-17 06:52:46 51°14.381 2°54.894 32.420334 0.068093 0.354856  
2002-09-17 06:52:51 51°14.384 2°54.871 32.420334 0.068093 0.354856  
2002-09-17 06:52:56 51°14.388 2°54.846 31.632745 0.068093 0.354856  
2002-09-17 06:53:01 51°14.39 2°54.822 32.421736 0.068093 0.354851  
2002-09-17 06:53:06 51°14.392 2°54.797 31.910822 0.068093 0.354851  
2002-09-17 06:53:11 51°14.394 2°54.773 32.702638 0.068093 0.354851  
2002-09-17 06:53:16 51°14.396 2°54.749 32.535455 0.068093 0.354856  
2002-09-17 06:53:19 51°14.396 2°54.734 32.535455 0.068093 0.354856  
2002-09-17 06:53:26 51°14.397 2°54.7 31.855742 0.068093 0.354856  
2002-09-17 06:53:31 51°14.398 2°54.675 32.200377 0.068093 0.354851  
2002-09-17 06:53:35 51°14.398 2°54.654 31.382249 0.068093 0.354856  
2002-09-17 06:53:41 51°14.399 2°54.623 31.976557 0.068093 0.354856  
2002-09-17 06:53:46 51°14.4 2°54.597 32.03344 0.068093 0.354861  
2002-09-17 06:53:50 51°14.4 2°54.576 32.03344 0.068093 0.354861  
2002-09-17 06:53:56 51°14.4 2°54.544 31.717488 0.068093 0.354856  
2002-09-17 06:54:01 51°14.398 2°54.518 32.371399 0.068093 0.354861  
2002-09-17 06:54:06 51°14.396 2°54.492 31.690125 0.068093 0.354867  
2002-09-17 06:54:11 51°14.391 2°54.466 32.568218 0.068093 0.354883  
2002-09-17 06:54:15 51°14.387 2°54.445 31.634507 0.068093 0.354877  
2002-09-17 06:54:21 51°14.379 2°54.415 31.634507 0.068093 0.354877  
2002-09-17 06:54:26 51°14.372 2°54.39 32.345397 0.068093 0.354877  
2002-09-17 06:54:30 51°14.366 2°54.37 31.67014 0.068093 0.354877  
2002-09-17 06:54:37 51°14.354 2°54.335 31.04028 0.068093 0.354872  
2002-09-17 06:54:41 51°14.348 2°54.315 31.727976 0.068093 0.354867  
2002-09-17 06:54:46 51°14.34 2°54.289 31.92001 0.068093 0.354867  
2002-09-17 06:54:51 51°14.332 2°54.264 31.92001 0.068093 0.354867  
2002-09-17 06:54:55 51°14.326 2°54.243 31.440025 0.068093 0.354861  
2002-09-17 06:55:01 51°14.315 2°54.212 31.474988 0.068093 0.354872  
2002-09-17 06:55:06 51°14.307 2°54.186 31.674041 0.068093 0.354877  
2002-09-17 06:55:11 51°14.298 2°54.161 32.06312 0.068093 0.354877  
2002-09-17 06:55:16 51°14.289 2°54.136 32.378753 0.068093 0.354888  
2002-09-17 06:55:21 51°14.281 2°54.11 32.378753 0.068093 0.354888  
2002-09-17 06:55:26 51°14.271 2°54.085 33.049047 0.068093 0.354888  
2002-09-17 06:55:31 51°14.262 2°54.06 31.930297 0.068093 0.354877  
2002-09-17 06:55:36 51°14.253 2°54.035 31.761704 0.068093 0.354883  
2002-09-17 06:55:41 51°14.244 2°54.009 32.458852 0.068093 0.354893  
2002-09-17 06:55:46 51°14.235 2°53.984 31.904146 0.068093 0.354877  
2002-09-17 06:55:51 51°14.226 2°53.959 31.904146 0.068093 0.354877  
2002-09-17 06:55:55 51°14.218 2°53.938 32.90643 0.068093 0.354888  
2002-09-17 06:56:01 51°14.207 2°53.908 31.786146 0.068093 0.354883  
2002-09-17 06:56:06 51°14.198 2°53.884 32.243219 0.068093 0.354888  
2002-09-17 06:56:11 51°14.188 2°53.86 31.850059 0.068093 0.354904  
2002-09-17 06:56:16 51°14.179 2°53.834 32.378787 0.068093 0.354888  
2002-09-17 06:56:21 51°14.168 2°53.81 32.378787 0.068093 0.354888  
2002-09-17 06:56:26 51°14.16 2°53.784 32.44262 0.068093 0.354893  
2002-09-17 06:56:30 51°14.151 2°53.766 32.946608 0.068093 0.354926  
2002-09-17 06:56:36 51°14.14 2°53.735 33.190116 0.068093 0.35491  
2002-09-17 06:56:41 51°14.129 2°53.711 31.031717 0.068093 0.354915  
2002-09-17 06:56:46 51°14.12 2°53.686 30.832414 0.068093 0.35492  
2002-09-17 06:56:49 51°14.113 2°53.671 30.832414 0.068093 0.35492  
2002-09-17 06:56:55 51°14.103 2°53.64 31.714038 0.068093 0.354899  
2002-09-17 06:57:01 51°14.091 2°53.611 31.170205 0.068093 0.354926  
2002-09-17 06:57:06 51°14.083 2°53.584 31.284159 0.068093 0.354899  
2002-09-17 06:57:11 51°14.072 2°53.56 31.992922 0.068093 0.354926  
2002-09-17 06:57:16 51°14.065 2°53.533 31.377848 0.068093 0.35491  
2002-09-17 06:57:21 51°14.055 2°53.508 31.377848 0.068093 0.35491  
2002-09-17 06:57:26 51°14.046 2°53.481 31.34402 0.068093 0.354926  
2002-09-17 06:57:31 51°14.037 2°53.456 31.088854 0.068093 0.35492  
2002-09-17 06:57:35 51°14.03 2°53.435 31.117962 0.068093 0.354915  
2002-09-17 06:57:41 51°14.019 2°53.403 31.289502 0.068093 0.35492  
2002-09-17 06:57:46 51°14.011 2°53.377 31.403383 0.068093 0.354915  
2002-09-17 06:57:51 51°14.002 2°53.351 31.403383 0.068093 0.354915  
2002-09-17 06:57:56 51°13.993 2°53.326 31.182574 0.068093 0.354915  
2002-09-17 06:58:01 51°13.985 2°53.299 30.633358 0.068093 0.35492  
2002-09-17 06:58:06 51°13.976 2°53.274 30.376712 0.068093 0.354926  
2002-09-17 06:58:11 51°13.968 2°53.247 31.942957 0.068093 0.354926  
2002-09-17 06:58:15 51°13.96 2°53.227 31.491321 0.068093 0.354931  
2002-09-17 06:58:21 51°13.95 2°53.196 31.491321 0.068093 0.354931  
2002-09-17 06:58:26 51°13.941 2°53.17 31.905832 0.068093 0.354942  
2002-09-17 06:58:31 51°13.933 2°53.144 31.44733 0.068093 0.354936  
2002-09-17 06:58:36 51°13.924 2°53.119 31.010097 0.068093 0.354952  
2002-09-17 06:58:41 51°13.916 2°53.092 31.437532 0.068093 0.354942  
2002-09-17 06:58:46 51°13.907 2°53.066 32.172293 0.068093 0.354947  
2002-09-17 06:58:51 51°13.898 2°53.04 32.172293 0.068093 0.354947  
2002-09-17 06:58:55 51°13.891 2°53.019 30.783746 0.068093 0.354947  
2002-09-17 06:59:01 51°13.882 2°52.988 30.440271 0.068093 0.354942  
2002-09-17 06:59:06 51°13.872 2°52.962 29.979593 0.068093 0.354963  
2002-09-17 06:59:11 51°13.865 2°52.935 31.196504 0.068093 0.354963  
2002-09-17 06:59:17 51°13.854 2°52.905 30.952379 0.068093 0.354963  
2002-09-17 06:59:21 51°13.848 2°52.883 30.952379 0.068093 0.354963  
2002-09-17 06:59:26 51°13.838 2°52.858 30.587329 0.068093 0.354985  
2002-09-17 06:59:31 51°13.83 2°52.831 32.55508 0.068093 0.354963  
2002-09-17 06:59:35 51°13.822 2°52.812 32.731789 0.068093 0.354985  
2002-09-17 06:59:41 51°13.812 2°52.78 33.01798 0.068093 0.35499  
2002-09-17 06:59:46 51°13.803 2°52.755 31.418901 0.068093 0.354974  
2002-09-17 06:59:51 51°13.794 2°52.729 31.418901 0.068093 0.354974  
2002-09-17 06:59:54 51°13.788 2°52.713 32.88166 0.068093 0.354995  
2002-09-17 07:00:01 51°13.776 2°52.677 30.93694 0.068093 0.355011  
2002-09-17 07:00:06 51°13.769 2°52.65 32.268331 0.068093 0.355001  
2002-09-17 07:00:11 51°13.759 2°52.625 31.812269 0.068093 0.355027  
2002-09-17 07:00:14 51°13.755 2°52.609 31.813337 0.068093 0.355027  
2002-09-17 07:00:21 51°13.742 2°52.573 31.813337 0.068093 0.355027  
2002-09-17 07:00:26 51°13.734 2°52.546 31.813716 0.068093 0.355011  
2002-09-17 07:00:31 51°13.725 2°52.521 31.446257 0.068093 0.355027  
2002-09-17 07:00:35 51°13.719 2°52.499 32.011895 0.068093 0.355033  
2002-09-17 07:00:41 51°13.708 2°52.468 32.041239 0.068093 0.355006  
2002-09-17 07:00:46 51°13.698 2°52.443 31.705413 0.068093 0.355076  
2002-09-17 07:00:49 51°13.693 2°52.428 31.705413 0.068093 0.355076  
2002-09-17 07:00:58 51°13.678 2°52.381 31.884974 0.068093 0.355151  
2002-09-17 07:01:03 51°13.67 2°52.354 31.884974 0.068093 0.355151  
2002-09-17 07:01:08 51°13.661 2°52.328 31.4609 0.068093 0.355172  
2002-09-17 07:01:13 51°13.653 2°52.302 31.148589 0.068093 0.355145  
2002-09-17 07:01:18 51°13.644 2°52.276 31.114415 0.068093 0.355086  
2002-09-17 07:01:23 51°13.635 2°52.25 31.85154 0.068093 0.355022  
2002-09-17 07:01:27 51°13.628 2°52.229 31.852022 0.068093 0.354963  
2002-09-17 07:01:33 51°13.618 2°52.198 31.852022 0.068093 0.354963  
2002-09-17 07:01:38 51°13.609 2°52.171 30.658233 0.068093 0.354974  
2002-09-17 07:01:43 51°13.601 2°52.145 31.059038 0.068093 0.354985  
2002-09-17 07:01:47 51°13.594 2°52.125 31.116189 0.068093 0.355043  
2002-09-17 07:01:53 51°13.584 2°52.093 31.577223 0.068093 0.355108  
2002-09-17 07:01:58 51°13.575 2°52.067 31.49274 0.068093 0.355183  
2002-09-17 07:02:03 51°13.566 2°52.041 31.49274 0.068093 0.355183  
2002-09-17 07:02:07 51°13.559 2°52.02 31.939517 0.068093 0.355226  
2002-09-17 07:02:11 51°13.553 2°51.999 31.40463 0.068093 0.355231  
2002-09-17 07:02:18 51°13.54 2°51.963 32.361957 0.068093 0.355231  
2002-09-17 07:02:23 51°13.532 2°51.937 31.913059 0.068093 0.35521  
2002-09-17 07:02:27 51°13.525 2°51.916 31.120396 0.068093 0.355194  
2002-09-17 07:02:33 51°13.515 2°51.884 31.120396 0.068093 0.355194  
2002-09-17 07:02:38 51°13.506 2°51.858 32.083964 0.068093 0.355156  
2002-09-17 07:02:43 51°13.497 2°51.832 30.693905 0.068093 0.355129  
2002-09-17 07:02:47 51°13.49 2°51.811 30.780184 0.068093 0.355108  
2002-09-17 07:02:53 51°13.48 2°51.78 31.492636 0.068093 0.355108  
2002-09-17 07:02:58 51°13.471 2°51.753 32.310862 0.068093 0.355097  
2002-09-17 07:03:03 51°13.462 2°51.727 32.310862 0.068093 0.355097  
2002-09-17 07:03:08 51°13.453 2°51.701 31.153246 0.068093 0.355119  
2002-09-17 07:03:14 51°13.443 2°51.669 32.059582 0.068093 0.355119  
2002-09-17 07:03:18 51°13.436 2°51.648 31.268441 0.068093 0.355129  
2002-09-17 07:03:23 51°13.428 2°51.622 31.807204 0.068093 0.355124  
2002-09-17 07:03:27 51°13.421 2°51.6 31.582165 0.068093 0.355135  
2002-09-17 07:03:33 51°13.41 2°51.569 31.582165 0.068093 0.355135  
2002-09-17 07:03:38 51°13.402 2°51.543 31.582891 0.068093 0.355129  
2002-09-17 07:03:43 51°13.393 2°51.517 30.643295 0.068093 0.355135  
2002-09-17 07:03:48 51°13.385 2°51.49 31.951178 0.068093 0.355119  
2002-09-17 07:03:53 51°13.375 2°51.465 31.357747 0.068093 0.355129  
2002-09-17 07:03:58 51°13.368 2°51.438 32.065181 0.068093 0.355129  
2002-09-17 07:04:03 51°13.357 2°51.412 32.065181 0.068093 0.355129  
2002-09-17 07:04:07 51°13.351 2°51.39 32.368354 0.068093 0.355119  
2002-09-17 07:04:13 51°13.341 2°51.36 31.750601 0.068093 0.355135  
2002-09-17 07:04:18 51°13.332 2°51.333 32.425975 0.068093 0.355129  
2002-09-17 07:04:23 51°13.323 2°51.307 31.276526 0.068093 0.355145  
2002-09-17 07:04:26 51°13.318 2°51.291 30.6174 0.068093 0.355145  
2002-09-17 07:04:33 51°13.307 2°51.252 30.6174 0.068093 0.355145  
2002-09-17 07:04:38 51°13.297 2°51.226 31.897916 0.068093 0.355161  
2002-09-17 07:04:43 51°13.289 2°51.198 32.052335 0.068093 0.355156  
2002-09-17 07:04:48 51°13.279 2°51.171 32.41189 0.068093 0.355167  
2002-09-17 07:04:53 51°13.271 2°51.144 31.056115 0.068093 0.355172  
2002-09-17 07:04:58 51°13.261 2°51.116 30.733685 0.068093 0.355172  
2002-09-17 07:05:03 51°13.252 2°51.088 30.733685 0.068093 0.355172  
2002-09-17 07:05:07 51°13.244 2°51.067 31.364402 0.068093 0.355172  
2002-09-17 07:05:13 51°13.233 2°51.033 32.330647 0.068093 0.355178  
2002-09-17 07:05:18 51°13.224 2°51.005 31.768772 0.068093 0.355178  
2002-09-17 07:05:22 51°13.217 2°50.983 31.876401 0.068093 0.355183  
2002-09-17 07:05:27 51°13.208 2°50.955 31.651221 0.068093 0.355183  
2002-09-17 07:05:34 51°13.195 2°50.916 31.651221 0.068093 0.355183  
2002-09-17 07:05:38 51°13.188 2°50.892 29.738004 0.068093 0.355199  
2002-09-17 07:05:43 51°13.179 2°50.865 30.368917 0.068093 0.355204  
2002-09-17 07:05:48 51°13.169 2°50.837 30.890816 0.068093 0.35521  
2002-09-17 07:05:53 51°13.161 2°50.808 30.805745 0.068093 0.35521  
2002-09-17 07:05:58 51°13.151 2°50.781 29.152364 0.067989 0.354662  
2002-09-17 07:06:02 51°13.144 2°50.757 29.152364 0.067989 0.354662  
2002-09-17 07:06:08 51°13.132 2°50.725 30.168854 0.068093 0.355231  
2002-09-17 07:06:13 51°13.124 2°50.696 30.140965 0.068093 0.355226  
2002-09-17 07:06:18 51°13.114 2°50.669 30.831506 0.068093 0.355242  
2002-09-17 07:06:23 51°13.106 2°50.64 29.873811 0.068093 0.355231  
2002-09-17 07:06:28 51°13.096 2°50.613 31.118449 0.068093 0.355242  
2002-09-17 07:06:33 51°13.087 2°50.584 31.118449 0.068093 0.355242  
2002-09-17 07:06:38 51°13.078 2°50.556 30.087518 0.068093 0.355242  
2002-09-17 07:06:43 51°13.069 2°50.529 30.634827 0.068093 0.355247  
2002-09-17 07:06:47 51°13.062 2°50.506 30.435289 0.068093 0.355247  
2002-09-17 07:06:53 51°13.05 2°50.473 30.292576 0.067989 0.354699  
2002-09-17 07:06:58 51°13.041 2°50.445 30.695374 0.067989 0.354699  
2002-09-17 07:07:03 51°13.032 2°50.417 30.695374 0.067989 0.354699  
2002-09-17 07:07:07 51°13.025 2°50.395 28.89948 0.068093 0.355258  
2002-09-17 07:07:13 51°13.014 2°50.362 30.294438 0.068093 0.355274  
2002-09-17 07:07:18 51°13.004 2°50.334 30.295387 0.067989 0.354721  
2002-09-17 07:07:23 51°12.995 2°50.307 30.949556 0.067989 0.354715  
2002-09-17 07:07:28 51°12.985 2°50.28 31.722284 0.067989 0.354731  
2002-09-17 07:07:33 51°12.976 2°50.252 31.722284 0.067989 0.354731  
2002-09-17 07:07:38 51°12.967 2°50.224 31.149736 0.067989 0.354726  
2002-09-17 07:07:43 51°12.957 2°50.197 29.834286 0.067989 0.354737  
2002-09-17 07:07:48 51°12.948 2°50.169 32.437323 0.067989 0.354742  
2002-09-17 07:07:53 51°12.939 2°50.142 31.156478 0.068093 0.355296  
2002-09-17 07:07:58 51°12.93 2°50.115 32.371741 0.067989 0.354758  
2002-09-17 07:08:03 51°12.92 2°50.088 32.371741 0.067989 0.354758  
2002-09-17 07:08:07 51°12.913 2°50.065 32.007977 0.067989 0.354742  
2002-09-17 07:08:13 51°12.902 2°50.032 32.261514 0.067989 0.354763  
2002-09-17 07:08:18 51°12.893 2°50.005 31.869171 0.067989 0.354769  
2002-09-17 07:08:23 51°12.884 2°49.977 31.13319 0.067989 0.354763  
2002-09-17 07:08:27 51°12.876 2°49.956 31.638893 0.067989 0.354763  
2002-09-17 07:08:33 51°12.865 2°49.923 31.638893 0.067989 0.354763  
2002-09-17 07:08:38 51°12.855 2°49.895 31.106 0.067989 0.354774  
2002-09-17 07:08:43 51°12.846 2°49.868 31.561807 0.067989 0.354774  
2002-09-17 07:08:48 51°12.837 2°49.84 31.810719 0.067989 0.354774  
2002-09-17 07:08:53 51°12.827 2°49.813 31.506268 0.067989 0.354779  
2002-09-17 07:08:58 51°12.818 2°49.785 32.043713 0.067989 0.35479  
2002-09-17 07:09:03 51°12.809 2°49.758 32.043713 0.067989 0.35479  
2002-09-17 07:09:07 51°12.801 2°49.736 31.535806 0.067989 0.354796  
2002-09-17 07:09:13 51°12.791 2°49.703 31.842275 0.067989 0.354796  
2002-09-17 07:09:18 51°12.781 2°49.676 30.107816 0.067989 0.354806  
2002-09-17 07:09:23 51°12.772 2°49.649 31.934357 0.067989 0.354806  
2002-09-17 07:09:29 51°12.76 2°49.616 31.957437 0.067989 0.354812  
2002-09-17 07:09:34 51°12.751 2°49.588 31.957437 0.067989 0.354812  
2002-09-17 07:09:38 51°12.744 2°49.566 31.506268 0.067989 0.354806  
2002-09-17 07:09:43 51°12.735 2°49.539 31.789559 0.067989 0.354817  
2002-09-17 07:09:47 51°12.728 2°49.517 31.789662 0.067989 0.354828  
2002-09-17 07:09:53 51°12.717 2°49.484 32.077887 0.067989 0.354817  
2002-09-17 07:09:58 51°12.708 2°49.457 32.716568 0.067989 0.354844  
2002-09-17 07:10:03 51°12.699 2°49.429 32.716568 0.067989 0.354844  
2002-09-17 07:10:07 51°12.691 2°49.407 31.764014 0.067989 0.354838  
2002-09-17 07:10:13 51°12.681 2°49.373 31.254836 0.067989 0.354833  
2002-09-17 07:10:18 51°12.671 2°49.346 31.856671 0.067989 0.354849  
2002-09-17 07:10:23 51°12.662 2°49.318 31.348076 0.067989 0.354849  
2002-09-17 07:10:27 51°12.654 2°49.296 31.57031 0.067989 0.354844  
2002-09-17 07:10:33 51°12.645 2°49.262 31.57031 0.067989 0.354844  
2002-09-17 07:10:38 51°12.635 2°49.235 32.443851 0.067989 0.354849  
2002-09-17 07:10:43 51°12.627 2°49.206 31.146608 0.067989 0.354849  
2002-09-17 07:10:47 51°12.619 2°49.184 31.38069 0.067989 0.354855  
2002-09-17 07:10:53 51°12.609 2°49.15 31.096853 0.067989 0.354871  
2002-09-17 07:10:58 51°12.6 2°49.122 29.069962 0.067989 0.354871  
2002-09-17 07:11:03 51°12.591 2°49.094 29.069962 0.067989 0.354871  
2002-09-17 07:11:07 51°12.583 2°49.072 31.205708 0.067989 0.354892  
2002-09-17 07:11:13 51°12.574 2°49.038 31.631709 0.067989 0.354876  
2002-09-17 07:11:18 51°12.564 2°49.011 31.716867 0.067989 0.354892  
2002-09-17 07:11:23 51°12.555 2°48.983 32.000106 0.067989 0.354897  
2002-09-17 07:11:28 51°12.546 2°48.954 30.292259 0.067989 0.354892  
2002-09-17 07:11:33 51°12.537 2°48.927 30.292259 0.067989 0.354892  
2002-09-17 07:11:38 51°12.528 2°48.899 29.569985 0.067989 0.354897  
2002-09-17 07:11:43 51°12.519 2°48.871 29.686964 0.067989 0.354903  
2002-09-17 07:11:45 51°12.515 2°48.86 30.18012 0.067989 0.354903  
2002-09-17 07:11:53 51°12.5 2°48.816 30.123142 0.067989 0.354903  
2002-09-17 07:11:58 51°12.491 2°48.789 31.012848 0.067989 0.354919  
2002-09-17 07:12:03 51°12.482 2°48.761 31.012848 0.067989 0.354919  
2002-09-17 07:12:07 51°12.474 2°48.739 30.584913 0.067989 0.354914  
2002-09-17 07:12:13 51°12.463 2°48.706 29.894238 0.067989 0.354919  
2002-09-17 07:12:18 51°12.454 2°48.679 30.212885 0.067989 0.354919  
2002-09-17 07:12:23 51°12.444 2°48.651 30.155721 0.067989 0.354924  
2002-09-17 07:12:27 51°12.438 2°48.629 30.497326 0.067989 0.354935  
2002-09-17 07:12:33 51°12.426 2°48.596 30.497326 0.067989 0.354935  
2002-09-17 07:12:38 51°12.417 2°48.568 30.532758 0.067989 0.35494  
2002-09-17 07:12:43 51°12.408 2°48.54 28.37903 0.067989 0.35494  
2002-09-17 07:12:47 51°12.402 2°48.518 30.706177 0.067989 0.354946  
2002-09-17 07:12:54 51°12.389 2°48.479 30.097633 0.067989 0.35494  
2002-09-17 07:12:58 51°12.381 2°48.457 31.021935 0.067989 0.354957  
2002-09-17 07:13:03 51°12.372 2°48.429 31.021935 0.067989 0.354957  
2002-09-17 07:13:08 51°12.363 2°48.402 31.790351 0.067989 0.354951  
2002-09-17 07:13:13 51°12.354 2°48.374 30.561099 0.067989 0.354962  
2002-09-17 07:13:18 51°12.345 2°48.347 31.076713 0.067989 0.354962  
2002-09-17 07:13:23 51°12.336 2°48.319 31.077583 0.067989 0.354962  
2002-09-17 07:13:27 51°12.328 2°48.297 30.483548 0.067989 0.354967  
2002-09-17 07:13:33 51°12.318 2°48.264 30.483548 0.067989 0.354967  
2002-09-17 07:13:38 51°12.308 2°48.237 30.455214 0.067989 0.354973  
2002-09-17 07:13:43 51°12.299 2°48.21 30.507562 0.067989 0.354978  
2002-09-17 07:13:47 51°12.291 2°48.188 29.995121 0.067989 0.354983  
2002-09-17 07:13:53 51°12.281 2°48.154 31.166348 0.067989 0.354978  
2002-09-17 07:13:58 51°12.271 2°48.128 30.139662 0.067989 0.354994  
2002-09-17 07:14:03 51°12.262 2°48.099 30.139662 0.067989 0.354994  
2002-09-17 07:14:07 51°12.255 2°48.078 30.624084 0.067989 0.354999  
2002-09-17 07:14:14 51°12.242 2°48.04 30.169805 0.067989 0.35501  
2002-09-17 07:14:18 51°12.236 2°48.018 30.769286 0.067989 0.354999  
2002-09-17 07:14:23 51°12.225 2°47.991 27.614711 0.067989 0.355016  
2002-09-17 07:14:28 51°12.218 2°47.962 30.998849 0.067989 0.35501  
2002-09-17 07:14:33 51°12.208 2°47.936 30.998849 0.067989 0.35501  
2002-09-17 07:14:38 51°12.199 2°47.907 30.000026 0.067989 0.355016  
2002-09-17 07:14:43 51°12.19 2°47.88 30.577034 0.067989 0.355021  
2002-09-17 07:14:46 51°12.184 2°47.864 30.772919 0.067989 0.355026  
2002-09-17 07:14:51 51°12.175 2°47.836 31.035755 0.067989 0.355021  
2002-09-17 07:14:58 51°12.163 2°47.797 30.83196 0.067989 0.355037  
2002-09-17 07:15:03 51°12.153 2°47.769 30.83196 0.067989 0.355037  
2002-09-17 07:15:07 51°12.147 2°47.746 27.471173 0.067989 0.355016  
2002-09-17 07:15:14 51°12.134 2°47.708 29.796793 0.067989 0.355042  
2002-09-17 07:15:18 51°12.127 2°47.686 30.691003 0.067989 0.355048  
2002-09-17 07:15:23 51°12.118 2°47.658 30.835624 0.067989 0.355042  
2002-09-17 07:15:28 51°12.108 2°47.631 31.292312 0.067989 0.355053  
2002-09-17 07:15:33 51°12.099 2°47.603 31.292312 0.067989 0.355053  
2002-09-17 07:15:38 51°12.09 2°47.576 30.665999 0.067989 0.355048  
2002-09-17 07:15:43 51°12.081 2°47.548 31.06123 0.067989 0.355053  
2002-09-17 07:15:47 51°12.074 2°47.526 30.896639 0.067989 0.355053  
2002-09-17 07:15:53 51°12.063 2°47.492 30.410235 0.067989 0.355042  
2002-09-17 07:15:58 51°12.053 2°47.466 31.034954 0.067989 0.355064  
2002-09-17 07:16:03 51°12.045 2°47.437 31.034954 0.067989 0.355064  
2002-09-17 07:16:07 51°12.037 2°47.415 32.342967 0.067989 0.355075  
2002-09-17 07:16:13 51°12.027 2°47.382 32.260281 0.067989 0.355075  
2002-09-17 07:16:18 51°12.018 2°47.354 31.966241 0.067989 0.35508  
2002-09-17 07:16:23 51°12.009 2°47.327 31.86714 0.067989 0.355091  
2002-09-17 07:16:28 51°11.999 2°47.3 32.709756 0.067989 0.355091  
2002-09-17 07:16:33 51°11.99 2°47.272 32.709756 0.067989 0.355091  
2002-09-17 07:16:38 51°11.981 2°47.245 32.6202 0.067989 0.355096  
2002-09-17 07:16:43 51°11.972 2°47.216 32.347621 0.067989 0.355096  
2002-09-17 07:16:48 51°11.963 2°47.189 32.600352 0.067989 0.355102  
2002-09-17 07:16:53 51°11.955 2°47.16 31.814853 0.067989 0.355102  
2002-09-17 07:16:58 51°11.945 2°47.133 32.399205 0.067989 0.355107  
2002-09-17 07:17:03 51°11.937 2°47.105 32.399205 0.067989 0.355107  
2002-09-17 07:17:07 51°11.929 2°47.083 32.611368 0.067989 0.355128  
2002-09-17 07:17:13 51°11.919 2°47.049 32.773316 0.067989 0.355128  
2002-09-17 07:17:18 51°11.91 2°47.021 32.631656 0.067989 0.355123  
2002-09-17 07:17:23 51°11.901 2°46.994 31.89647 0.067989 0.355139  
2002-09-17 07:17:27 51°11.894 2°46.972 30.422903 0.067989 0.355145  
2002-09-17 07:17:33 51°11.884 2°46.938 30.422903 0.067989 0.355145  
2002-09-17 07:17:38 51°11.874 2°46.911 32.65596 0.067989 0.355139  
2002-09-17 07:17:43 51°11.866 2°46.883 31.536947 0.067989 0.355139  
2002-09-17 07:17:48 51°11.856 2°46.857 31.989346 0.067989 0.355155  
2002-09-17 07:17:53 51°11.847 2°46.829 31.391466 0.067989 0.355155  
2002-09-17 07:17:58 51°11.838 2°46.801 32.410044 0.067989 0.355155  
2002-09-17 07:18:03 51°11.829 2°46.774 32.410044 0.067989 0.355155  
2002-09-17 07:18:07 51°11.821 2°46.752 32.604036 0.067989 0.355166  
2002-09-17 07:18:13 51°11.811 2°46.719 31.34343 0.067989 0.355166  
2002-09-17 07:18:18 51°11.801 2°46.692 31.904352 0.067989 0.355171  
2002-09-17 07:18:23 51°11.792 2°46.665 30.625694 0.067989 0.355171  
2002-09-17 07:18:27 51°11.785 2°46.643 32.418112 0.067989 0.355177  
2002-09-17 07:18:34 51°11.772 2°46.605 32.418112 0.067989 0.355177  
2002-09-17 07:18:38 51°11.765 2°46.583 31.680703 0.067989 0.355171  
2002-09-17 07:18:43 51°11.755 2°46.556 31.625837 0.067885 0.354622  
2002-09-17 07:18:47 51°11.748 2°46.533 31.858462 0.067989 0.355193  
2002-09-17 07:18:53 51°11.738 2°46.501 32.302029 0.067989 0.355188  
2002-09-17 07:18:58 51°11.727 2°46.474 30.888235 0.067885 0.354644  
2002-09-17 07:19:03 51°11.719 2°46.446 30.888235 0.067885 0.354644  
2002-09-17 07:19:07 51°11.712 2°46.424 32.001481 0.067989 0.355209  
2002-09-17 07:19:13 51°11.701 2°46.391 31.685259 0.067989 0.355214  
2002-09-17 07:19:18 51°11.692 2°46.363 31.261222 0.067989 0.355209  
2002-09-17 07:19:23 51°11.683 2°46.336 31.82891 0.067989 0.355209  
2002-09-17 07:19:27 51°11.675 2°46.315 30.784165 0.067885 0.354665  
2002-09-17 07:19:33 51°11.664 2°46.281 30.784165 0.067885 0.354665  
2002-09-17 07:19:38 51°11.655 2°46.254 30.469172 0.067885 0.354671  
2002-09-17 07:19:43 51°11.646 2°46.226 30.607914 0.067885 0.35466  
2002-09-17 07:19:47 51°11.639 2°46.205 31.17969 0.067885 0.354676  
2002-09-17 07:19:53 51°11.627 2°46.172 31.237584 0.067989 0.355231  
2002-09-17 07:19:58 51°11.618 2°46.144 31.181809 0.067989 0.355241  
2002-09-17 07:20:03 51°11.61 2°46.116 31.181809 0.067989 0.355241  
2002-09-17 07:20:06 51°11.604 2°46.1 30.438902 0.067885 0.354687  
2002-09-17 07:20:13 51°11.593 2°46.06 28.753223 0.067989 0.355247  
2002-09-17 07:20:18 51°11.584 2°46.032 30.812203 0.067885 0.354708  
2002-09-17 07:20:23 51°11.577 2°46.004 30.784305 0.067989 0.355268  
2002-09-17 07:20:28 51°11.568 2°45.976 30.899638 0.067885 0.354708  
2002-09-17 07:20:33 51°11.562 2°45.947 30.899638 0.067885 0.354708  
2002-09-17 07:20:38 51°11.553 2°45.919 30.694675 0.067885 0.354719  
2002-09-17 07:20:43 51°11.546 2°45.89 30.672784 0.067885 0.354714  
2002-09-17 07:20:47 51°11.54 2°45.867 31.142576 0.067989 0.355274  
2002-09-17 07:20:53 51°11.53 2°45.833 30.754754 0.067885 0.35473  
2002-09-17 07:20:58 51°11.523 2°45.804 30.181 0.067885 0.35473  
2002-09-17 07:21:02 51°11.516 2°45.782 30.181 0.067885 0.35473  
2002-09-17 07:21:08 51°11.507 2°45.747 30.961125 0.067885 0.35473  
2002-09-17 07:21:14 51°11.498 2°45.713 31.275485 0.067885 0.354741  
2002-09-17 07:21:18 51°11.491 2°45.69 30.130786 0.067885 0.354746  
2002-09-17 07:21:23 51°11.484 2°45.662 30.963807 0.067885 0.354757  
2002-09-17 07:21:27 51°11.477 2°45.639 30.816776 0.067885 0.354751  
2002-09-17 07:21:33 51°11.468 2°45.605 30.816776 0.067885 0.354751  
2002-09-17 07:21:38 51°11.461 2°45.576 30.278761 0.067885 0.354751  
2002-09-17 07:21:43 51°11.452 2°45.547 32.353985 0.067885 0.354767  
2002-09-17 07:21:47 51°11.447 2°45.524 31.622245 0.067885 0.354762  
2002-09-17 07:21:53 51°11.437 2°45.49 31.763876 0.067885 0.354767  
2002-09-17 07:21:57 51°11.432 2°45.467 32.326985 0.067885 0.354794  
2002-09-17 07:22:03 51°11.421 2°45.433 32.326985 0.067885 0.354794  
2002-09-17 07:22:07 51°11.416 2°45.409 32.047148 0.067885 0.354773  
2002-09-17 07:22:13 51°11.406 2°45.375 32.041651 0.067885 0.354794  
2002-09-17 07:22:18 51°11.399 2°45.346 32.099345 0.067885 0.354794  
2002-09-17 07:22:23 51°11.391 2°45.318 32.044331 0.067885 0.3548  
2002-09-17 07:22:26 51°11.386 2°45.301 32.298057 0.067885 0.3548  
2002-09-17 07:22:33 51°11.375 2°45.26 32.298057 0.067885 0.3548  
2002-09-17 07:22:38 51°11.367 2°45.231 32.66281 0.067885 0.3548  
2002-09-17 07:22:43 51°11.36 2°45.203 32.44638 0.067885 0.3548  
2002-09-17 07:22:47 51°11.354 2°45.18 31.653016 0.067885 0.354805  
2002-09-17 07:22:53 51°11.344 2°45.145 32.30196 0.067885 0.35481  
2002-09-17 07:22:58 51°11.337 2°45.116 31.115876 0.067885 0.354816  
2002-09-17 07:23:03 51°11.329 2°45.087 31.115876 0.067885 0.354816  
2002-09-17 07:23:07 51°11.322 2°45.065 31.145148 0.067885 0.354827  
2002-09-17 07:23:14 51°11.312 2°45.024 31.350918 0.067885 0.354827  
2002-09-17 07:23:18 51°11.306 2°45.001 32.220396 0.067885 0.354837  
2002-09-17 07:23:23 51°11.298 2°44.972 30.695234 0.067885 0.354837  
2002-09-17 07:23:26 51°11.294 2°44.955 31.9966 0.067885 0.354853  
2002-09-17 07:23:33 51°11.283 2°44.915 31.9966 0.067885 0.354853  
2002-09-17 07:23:38 51°11.274 2°44.887 31.659507 0.067885 0.354859  
2002-09-17 07:23:42 51°11.269 2°44.863 32.083552 0.067885 0.354848  
2002-09-17 07:23:48 51°11.259 2°44.829 31.20741 0.067885 0.354859  
2002-09-17 07:23:52 51°11.254 2°44.807 32.168932 0.067885 0.354864  
2002-09-17 07:23:58 51°11.243 2°44.773 31.038052 0.067885 0.354864  
2002-09-17 07:24:03 51°11.236 2°44.744 31.038052 0.067885 0.354864  
2002-09-17 07:24:08 51°11.227 2°44.715 32.75892 0.067885 0.35488  
2002-09-17 07:24:13 51°11.221 2°44.686 31.152864 0.067885 0.354864  
2002-09-17 07:24:18 51°11.213 2°44.658 31.182365 0.067885 0.354891  
2002-09-17 07:24:23 51°11.205 2°44.63 31.554339 0.067885 0.354891  
2002-09-17 07:24:27 51°11.2 2°44.606 31.329076 0.067885 0.354886  
2002-09-17 07:24:33 51°11.19 2°44.572 31.329076 0.067885 0.354886  
2002-09-17 07:24:38 51°11.183 2°44.544 31.101375 0.067885 0.354891  
2002-09-17 07:24:43 51°11.176 2°44.515 31.096784 0.067885 0.354891  
2002-09-17 07:24:47 51°11.169 2°44.492 31.834456 0.067885 0.354902  
2002-09-17 07:24:53 51°11.161 2°44.458 31.131834 0.067885 0.354902  
2002-09-17 07:24:58 51°11.152 2°44.43 30.675442 0.067885 0.354913  
2002-09-17 07:25:03 51°11.145 2°44.401 30.675442 0.067885 0.354913  
2002-09-17 07:25:07 51°11.139 2°44.379 31.29814 0.067885 0.354918  
2002-09-17 07:25:13 51°11.129 2°44.345 32.963379 0.067885 0.354918  
2002-09-17 07:25:18 51°11.121 2°44.317 31.192335 0.067885 0.354929  
2002-09-17 07:25:23 51°11.114 2°44.289 32.604036 0.067885 0.354929  
2002-09-17 07:25:27 51°11.108 2°44.266 32.100169 0.067885 0.354939  
2002-09-17 07:25:33 51°11.099 2°44.232 32.100169 0.067885 0.354939  
2002-09-17 07:25:38 51°11.091 2°44.205 31.502151 0.067885 0.354934  
2002-09-17 07:25:43 51°11.083 2°44.176 32.354054 0.067885 0.354939  
2002-09-17 07:25:46 51°11.078 2°44.16 32.404676 0.067885 0.35495  
2002-09-17 07:25:53 51°11.067 2°44.121 32.607855 0.067885 0.354956  
2002-09-17 07:25:58 51°11.059 2°44.092 32.210044 0.067885 0.354956  
2002-09-17 07:26:03 51°11.051 2°44.064 32.210044 0.067885 0.354956  
2002-09-17 07:26:08 51°11.043 2°44.036 31.535252 0.067885 0.354956  
2002-09-17 07:26:14 51°11.034 2°44.002 31.733253 0.067885 0.354972  
2002-09-17 07:26:18 51°11.028 2°43.98 31.654604 0.067885 0.354972  
2002-09-17 07:26:23 51°11.019 2°43.951 32.431034 0.067885 0.354966  
2002-09-17 07:26:27 51°11.014 2°43.927 31.286518 0.067885 0.354988  
2002-09-17 07:26:33 51°11.004 2°43.894 31.286518 0.067885 0.354988  
2002-09-17 07:26:38 51°10.997 2°43.865 29.119742 0.067885 0.354972  
2002-09-17 07:26:43 51°10.989 2°43.837 31.260112 0.067885 0.354999  
2002-09-17 07:26:47 51°10.983 2°43.814 32.418693 0.067885 0.355009  
2002-09-17 07:26:53 51°10.974 2°43.779 30.748151 0.067885 0.354988  
2002-09-17 07:26:58 51°10.966 2°43.752 32.196228 0.067885 0.355015  
2002-09-17 07:27:03 51°10.959 2°43.723 32.196228 0.067885 0.355015  
2002-09-17 07:27:06 51°10.954 2°43.706 31.350745 0.067885 0.355009  
2002-09-17 07:27:13 51°10.943 2°43.666 32.277099 0.067885 0.355009  
2002-09-17 07:27:18 51°10.935 2°43.638 30.28885 0.067885 0.35502  
2002-09-17 07:27:23 51°10.928 2°43.609 30.806548 0.067885 0.355015  
2002-09-17 07:27:26 51°10.924 2°43.592 30.606479 0.067885 0.35502  
2002-09-17 07:27:33 51°10.914 2°43.552 30.606479 0.067885 0.35502  
2002-09-17 07:27:37 51°10.908 2°43.528 31.008565 0.067885 0.35502  
2002-09-17 07:27:42 51°10.902 2°43.499 29.917696 0.067885 0.355026  
2002-09-17 07:27:47 51°10.896 2°43.47 31.152204 0.067885 0.355026  
2002-09-17 07:27:52 51°10.889 2°43.442 28.073183 0.067885 0.355031  
2002-09-17 07:27:58 51°10.882 2°43.405 30.093157 0.067885 0.355042  
2002-09-17 07:28:03 51°10.876 2°43.376 30.093157 0.067885 0.355042  
2002-09-17 07:28:07 51°10.87 2°43.353 29.804753 0.067885 0.355042  
2002-09-17 07:28:13 51°10.864 2°43.317 31.01344 0.067885 0.355042  
2002-09-17 07:28:18 51°10.857 2°43.288 31.320927 0.067885 0.355047  
2002-09-17 07:28:23 51°10.851 2°43.259 30.729561 0.067885 0.355063  
2002-09-17 07:28:28 51°10.845 2°43.229 30.415078 0.067885 0.355058  
2002-09-17 07:28:33 51°10.839 2°43.2 30.415078 0.067885 0.355058  
2002-09-17 07:28:38 51°10.832 2°43.171 30.502269 0.067885 0.355074  
2002-09-17 07:28:43 51°10.825 2°43.142 30.157059 0.067885 0.355074  
2002-09-17 07:28:47 51°10.821 2°43.118 30.588765 0.067885 0.355069  
2002-09-17 07:28:53 51°10.812 2°43.083 31.075704 0.067885 0.355085  
2002-09-17 07:28:58 51°10.806 2°43.054 30.528519 0.067885 0.355079  
2002-09-17 07:29:02 51°10.801 2°43.031 30.528519 0.067885 0.355079  
2002-09-17 07:29:07 51°10.794 2°43.002 30.246657 0.067885 0.355096  
2002-09-17 07:29:14 51°10.785 2°42.96 31.391881 0.067885 0.355085  
2002-09-17 07:29:18 51°10.78 2°42.937 32.344986 0.067885 0.355096  
2002-09-17 07:29:23 51°10.773 2°42.908 31.761463 0.067885 0.355106  
2002-09-17 07:29:27 51°10.768 2°42.884 31.308858 0.067885 0.355101  
2002-09-17 07:29:33 51°10.76 2°42.849 31.308858 0.067885 0.355101  
2002-09-17 07:29:38 51°10.754 2°42.82 30.423324 0.067885 0.355106  
2002-09-17 07:29:43 51°10.747 2°42.791 31.559905 0.067885 0.355117  
2002-09-17 07:29:48 51°10.741 2°42.761 32.573063 0.067885 0.355117  
2002-09-17 07:29:53 51°10.734 2°42.733 31.876746 0.067885 0.355122  
2002-09-17 07:29:58 51°10.728 2°42.703 31.424165 0.067885 0.355139  
2002-09-17 07:30:03 51°10.72 2°42.675 31.424165 0.067885 0.355139  
2002-09-17 07:30:08 51°10.715 2°42.645 32.070263 0.067885 0.355128  
2002-09-17 07:30:13 51°10.707 2°42.617 32.014094 0.067885 0.355149  
2002-09-17 07:30:18 51°10.701 2°42.588 32.710914 0.067885 0.355155  
2002-09-17 07:30:23 51°10.695 2°42.559 31.621796 0.067885 0.355139  
2002-09-17 07:30:28 51°10.688 2°42.531 32.045327 0.067885 0.355144  
2002-09-17 07:30:33 51°10.681 2°42.502 32.045327 0.067885 0.355144  
2002-09-17 07:30:38 51°10.675 2°42.473 29.969322 0.067885 0.355155  
2002-09-17 07:30:43 51°10.668 2°42.444 30.827772 0.067885 0.35516  
2002-09-17 07:30:48 51°10.662 2°42.414 31.851609 0.067885 0.35516  
2002-09-17 07:30:50 51°10.66 2°42.403 31.086801 0.067885 0.355171  
2002-09-17 07:30:58 51°10.65 2°42.356 32.225297 0.067885 0.355176  
2002-09-17 07:31:03 51°10.643 2°42.327 32.225297 0.067885 0.355176  
2002-09-17 07:31:07 51°10.638 2°42.304 31.486304 0.067885 0.355176  
2002-09-17 07:31:13 51°10.63 2°42.269 31.685328 0.067885 0.355182  
2002-09-17 07:31:18 51°10.624 2°42.24 31.234251 0.067885 0.355187  
2002-09-17 07:31:23 51°10.618 2°42.211 32.64536 0.067781 0.354632  
2002-09-17 07:31:28 51°10.611 2°42.182 31.944333 0.067885 0.355192  
2002-09-17 07:31:34 51°10.603 2°42.147 31.944333 0.067885 0.355192  
2002-09-17 07:31:38 51°10.599 2°42.123 31.972981 0.067885 0.355192  
2002-09-17 07:31:43 51°10.593 2°42.094 32.188582 0.067781 0.354643  
2002-09-17 07:31:47 51°10.588 2°42.071 32.593156 0.067781 0.354643  
2002-09-17 07:31:53 51°10.581 2°42.036 32.755346 0.067781 0.354653  
2002-09-17 07:31:58 51°10.575 2°42.006 31.859013 0.067885 0.355214  
2002-09-17 07:32:03 51°10.569 2°41.977 31.859013 0.067885 0.355214  
2002-09-17 07:32:07 51°10.564 2°41.954 30.814228 0.067781 0.354653  
2002-09-17 07:32:13 51°10.556 2°41.919 33.063254 0.067885 0.355225  
2002-09-17 07:32:18 51°10.55 2°41.89 32.092582 0.067781 0.35467  
2002-09-17 07:32:23 51°10.543 2°41.861 31.557416 0.067781 0.354675  
2002-09-17 07:32:28 51°10.536 2°41.832 31.502116 0.067781 0.354675  
2002-09-17 07:32:33 51°10.53 2°41.803 31.502116 0.067781 0.354675  
2002-09-17 07:32:38 51°10.523 2°41.774 32.033028 0.067781 0.35468  
2002-09-17 07:32:43 51°10.516 2°41.745 31.644384 0.067885 0.355246  
2002-09-17 07:32:48 51°10.509 2°41.716 31.440994 0.067781 0.354686  
2002-09-17 07:32:53 51°10.502 2°41.688 32.203051 0.067781 0.354696  
2002-09-17 07:32:58 51°10.495 2°41.66 31.83797 0.067781 0.354702  
2002-09-17 07:33:03 51°10.488 2°41.631 31.83797 0.067781 0.354702  
2002-09-17 07:33:07 51°10.482 2°41.608 32.092136 0.067781 0.354696  
2002-09-17 07:33:13 51°10.473 2°41.574 32.457486 0.067781 0.354713  
2002-09-17 07:33:18 51°10.467 2°41.545 31.47298 0.067781 0.354713  
2002-09-17 07:33:23 51°10.46 2°41.516 31.21814 0.067781 0.354713  
2002-09-17 07:33:27 51°10.455 2°41.493 32.934146 0.067781 0.354723  
2002-09-17 07:33:33 51°10.446 2°41.459 32.934146 0.067781 0.354723  
2002-09-17 07:33:38 51°10.439 2°41.431 31.927235 0.067781 0.354723  
2002-09-17 07:33:43 51°10.433 2°41.402 32.018562 0.067781 0.354723  
2002-09-17 07:33:47 51°10.427 2°41.379 31.730735 0.067781 0.354734  
2002-09-17 07:33:53 51°10.419 2°41.344 31.709967 0.067781 0.354734  
2002-09-17 07:33:58 51°10.413 2°41.316 32.211586 0.067781 0.354745  
2002-09-17 07:34:02 51°10.407 2°41.293 32.211586 0.067781 0.354745  
2002-09-17 07:34:07 51°10.401 2°41.264 32.212409 0.067781 0.354745  
2002-09-17 07:34:13 51°10.393 2°41.229 30.049621 0.067781 0.354745  
2002-09-17 07:34:18 51°10.386 2°41.201 30.511031 0.067781 0.35475  
2002-09-17 07:34:23 51°10.38 2°41.172 30.512574 0.067781 0.354756  
2002-09-17 07:34:27 51°10.374 2°41.149 30.976732 0.067781 0.35475  
2002-09-17 07:34:33 51°10.367 2°41.114 30.976732 0.067781 0.35475  
2002-09-17 07:34:38 51°10.362 2°41.085 30.800542 0.067781 0.354761  
2002-09-17 07:34:42 51°10.356 2°41.062 31.058481 0.067781 0.354777  
2002-09-17 07:34:47 51°10.351 2°41.033 30.893571 0.067781 0.354777  
2002-09-17 07:34:53 51°10.344 2°40.998 30.754649 0.067781 0.354777  
2002-09-17 07:34:58 51°10.338 2°40.969 30.401461 0.067781 0.354788  
2002-09-17 07:35:03 51°10.332 2°40.94 30.401461 0.067781 0.354788  
2002-09-17 07:35:08 51°10.326 2°40.911 30.718097 0.067781 0.354788  
2002-09-17 07:35:11 51°10.323 2°40.893 30.976001 0.067781 0.354788  
2002-09-17 07:35:18 51°10.315 2°40.852 30.116061 0.067781 0.354793  
2002-09-17 07:35:23 51°10.309 2°40.823 30.7485 0.067781 0.354788  
2002-09-17 07:35:27 51°10.305 2°40.799 30.624644 0.067781 0.354799  
2002-09-17 07:35:33 51°10.298 2°40.765 30.624644 0.067781 0.354799  
2002-09-17 07:35:38 51°10.292 2°40.736 30.750352 0.067781 0.354799  
2002-09-17 07:35:43 51°10.286 2°40.706 30.607914 0.067781 0.354804  
2002-09-17 07:35:47 51°10.282 2°40.682 30.866609 0.067781 0.354799  
2002-09-17 07:35:53 51°10.275 2°40.648 30.409428 0.067781 0.354804  
2002-09-17 07:35:58 51°10.269 2°40.619 31.885559 0.067781 0.354804  
2002-09-17 07:36:03 51°10.263 2°40.59 31.885559 0.067781 0.354804  
2002-09-17 07:36:08 51°10.258 2°40.56 32.285901 0.067781 0.354815  
2002-09-17 07:36:13 51°10.252 2°40.531 31.80841 0.067781 0.35481  
2002-09-17 07:36:18 51°10.246 2°40.502 32.455845 0.067781 0.354826  
2002-09-17 07:36:23 51°10.242 2°40.472 32.343788 0.067781 0.35481  
2002-09-17 07:36:28 51°10.235 2°40.444 31.859805 0.067781 0.354826  
2002-09-17 07:36:33 51°10.23 2°40.414 31.859805 0.067781 0.354826  
2002-09-17 07:36:38 51°10.224 2°40.385 31.414606 0.067781 0.354847  
2002-09-17 07:36:42 51°10.22 2°40.361 31.607736 0.067781 0.354826  
2002-09-17 07:36:47 51°10.214 2°40.332 31.954101 0.067781 0.354847  
2002-09-17 07:36:54 51°10.207 2°40.291 32.705635 0.067781 0.354836  
2002-09-17 07:36:58 51°10.202 2°40.268 30.734733 0.067781 0.354836  
2002-09-17 07:37:03 51°10.197 2°40.239 30.734733 0.067781 0.354836  
2002-09-17 07:37:08 51°10.191 2°40.209 32.519581 0.067781 0.354842  
2002-09-17 07:37:13 51°10.186 2°40.18 31.833388 0.067781 0.354836  
2002-09-17 07:37:18 51°10.179 2°40.152 31.676147 0.067781 0.354853  
2002-09-17 07:37:22 51°10.175 2°40.129 32.241403 0.067781 0.354842  
2002-09-17 07:37:28 51°10.168 2°40.094 32.32031 0.067781 0.354847  
2002-09-17 07:37:33 51°10.162 2°40.065 32.32031 0.067781 0.354847  
2002-09-17 07:37:38 51°10.157 2°40.035 32.046976 0.067781 0.354842  
2002-09-17 07:37:43 51°10.151 2°40.007 31.618376 0.067781 0.354853  
2002-09-17 07:37:47 51°10.146 2°39.983 31.823226 0.067781 0.354858  
2002-09-17 07:37:53 51°10.139 2°39.949 32.077406 0.067781 0.354863  
2002-09-17 07:37:58 51°10.133 2°39.92 31.903629 0.067781 0.354858  
2002-09-17 07:38:03 51°10.127 2°39.891 31.903629 0.067781 0.354858  
2002-09-17 07:38:08 51°10.12 2°39.862 32.891413 0.067781 0.354863  
2002-09-17 07:38:13 51°10.113 2°39.834 32.024094 0.067781 0.354863  
2002-09-17 07:38:18 51°10.106 2°39.805 31.53169 0.067781 0.354869  
2002-09-17 07:38:23 51°10.099 2°39.777 32.782572 0.067781 0.354869  
2002-09-17 07:38:28 51°10.092 2°39.749 32.699913 0.067781 0.354874  
2002-09-17 07:38:33 51°10.085 2°39.72 32.699913 0.067781 0.354874  
2002-09-17 07:38:38 51°10.077 2°39.692 31.201818 0.067781 0.354874  
2002-09-17 07:38:43 51°10.069 2°39.664 32.723378 0.067781 0.354885  
2002-09-17 07:38:47 51°10.063 2°39.642 31.945261 0.067781 0.354896  
2002-09-17 07:38:53 51°10.054 2°39.608 32.305384 0.067781 0.354896  
2002-09-17 07:38:58 51°10.046 2°39.581 30.804523 0.067781 0.354896  
2002-09-17 07:39:03 51°10.038 2°39.552 30.804523 0.067781 0.354896  
2002-09-17 07:39:07 51°10.032 2°39.53 31.664617 0.067781 0.354901  
2002-09-17 07:39:13 51°10.022 2°39.497 31.063248 0.067781 0.354912  
2002-09-17 07:39:18 51°10.015 2°39.468 31.575426 0.067781 0.354906  
2002-09-17 07:39:23 51°10.006 2°39.441 30.978683 0.067781 0.354906  
2002-09-17 07:39:28 51°9.999 2°39.412 32.252367 0.067781 0.354923  
2002-09-17 07:39:33 51°9.992 2°39.384 32.252367 0.067781 0.354923  
2002-09-17 07:39:38 51°9.985 2°39.356 31.662925 0.067781 0.354917  
2002-09-17 07:39:43 51°9.976 2°39.328 32.89848 0.067781 0.354933  
2002-09-17 07:39:48 51°9.97 2°39.299 31.461627 0.067781 0.354923  
2002-09-17 07:39:53 51°9.962 2°39.271 32.510737 0.067781 0.354928  
2002-09-17 07:39:58 51°9.955 2°39.243 31.639583 0.067781 0.354928  
2002-09-17 07:40:02 51°9.949 2°39.22 31.639583 0.067781 0.354928  
2002-09-17 07:40:08 51°9.94 2°39.186 31.838211 0.067781 0.354939  
2002-09-17 07:40:13 51°9.933 2°39.158 31.923382 0.067781 0.354933  
2002-09-17 07:40:18 51°9.925 2°39.13 31.663892 0.067781 0.354955  
2002-09-17 07:40:23 51°9.918 2°39.101 32.743909 0.067781 0.354933  
2002-09-17 07:40:28 51°9.91 2°39.073 32.514835 0.067781 0.354966  
2002-09-17 07:40:33 51°9.903 2°39.044 32.514835 0.067781 0.354966  
2002-09-17 07:40:38 51°9.895 2°39.017 31.36 0.067781 0.35496  
2002-09-17 07:40:43 51°9.888 2°38.988 32.012238 0.067781 0.35496  
2002-09-17 07:40:47 51°9.882 2°38.966 31.016051 0.067781 0.354971  
2002-09-17 07:40:53 51°9.874 2°38.931 30.363509 0.067781 0.354966  
2002-09-17 07:40:58 51°9.866 2°38.904 30.908948 0.067781 0.354971  
2002-09-17 07:41:03 51°9.859 2°38.875 30.908948 0.067781 0.354971  
2002-09-17 07:41:07 51°9.853 2°38.853 29.961379 0.067781 0.354977  
2002-09-17 07:41:13 51°9.844 2°38.819 30.624714 0.067781 0.354977  
2002-09-17 07:41:18 51°9.836 2°38.791 30.424026 0.067781 0.354982  
2002-09-17 07:41:23 51°9.829 2°38.762 30.199372 0.067781 0.354982  
2002-09-17 07:41:28 51°9.822 2°38.734 30.47878 0.067781 0.354987  
2002-09-17 07:41:33 51°9.815 2°38.707 30.47878 0.067781 0.354987  
2002-09-17 07:41:38 51°9.808 2°38.678 30.657044 0.067781 0.354998  
2002-09-17 07:41:43 51°9.8 2°38.65 30.623909 0.067781 0.355004  
2002-09-17 07:41:48 51°9.792 2°38.623 30.825817 0.067781 0.355004  
2002-09-17 07:41:53 51°9.784 2°38.595 30.598252 0.067781 0.355004  
2002-09-17 07:41:58 51°9.776 2°38.567 30.999093 0.067781 0.35502  
2002-09-17 07:42:03 51°9.768 2°38.54 30.999093 0.067781 0.35502  
2002-09-17 07:42:07 51°9.763 2°38.517 31.114485 0.067781 0.355009  
2002-09-17 07:42:13 51°9.753 2°38.483 30.43378 0.067781 0.355014  
2002-09-17 07:42:18 51°9.746 2°38.455 30.515658 0.067781 0.35502  
2002-09-17 07:42:23 51°9.738 2°38.427 31.036973 0.067781 0.355025  
2002-09-17 07:42:27 51°9.732 2°38.405 31.032726 0.067781 0.355025  
2002-09-17 07:42:33 51°9.723 2°38.371 31.032726 0.067781 0.355025  
2002-09-17 07:42:38 51°9.716 2°38.343 30.489929 0.067781 0.355036  
2002-09-17 07:42:42 51°9.71 2°38.32 30.409638 0.067781 0.355041  
2002-09-17 07:42:47 51°9.703 2°38.292 32.046633 0.067781 0.355036  
2002-09-17 07:42:53 51°9.694 2°38.259 32.250825 0.067781 0.355063  
2002-09-17 07:42:58 51°9.686 2°38.231 32.447781 0.067781 0.355052  
2002-09-17 07:43:03 51°9.678 2°38.203 32.447781 0.067781 0.355052  
2002-09-17 07:43:08 51°9.671 2°38.175 29.538325 0.067781 0.355057  
2002-09-17 07:43:12 51°9.664 2°38.154 31.724492 0.067781 0.355074  
2002-09-17 07:43:18 51°9.655 2°38.12 32.31117 0.067781 0.355074  
2002-09-17 07:43:23 51°9.647 2°38.092 30.725856 0.067781 0.355084  
2002-09-17 07:43:28 51°9.64 2°38.064 32.16461 0.067781 0.355074  
2002-09-17 07:43:33 51°9.633 2°38.037 32.16461 0.067781 0.355074  
2002-09-17 07:43:38 51°9.625 2°38.009 32.258465 0.067781 0.355084  
2002-09-17 07:43:43 51°9.618 2°37.981 31.956784 0.067781 0.355079  
2002-09-17 07:43:48 51°9.61 2°37.953 33.042333 0.067781 0.35509  
2002-09-17 07:43:54 51°9.601 2°37.92 32.064459 0.067781 0.35509  
2002-09-17 07:43:58 51°9.595 2°37.898 31.302684 0.067781 0.35509  
2002-09-17 07:44:03 51°9.587 2°37.87 31.302684 0.067781 0.35509  
2002-09-17 07:44:07 51°9.581 2°37.848 31.806239 0.067781 0.355101  
2002-09-17 07:44:13 51°9.571 2°37.815 32.123886 0.067781 0.355106  
2002-09-17 07:44:18 51°9.564 2°37.786 31.899086 0.067781 0.355106  
2002-09-17 07:44:23 51°9.556 2°37.759 32.209427 0.067781 0.355117  
2002-09-17 07:44:27 51°9.55 2°37.737 32.176409 0.067781 0.355117  
2002-09-17 07:44:33 51°9.54 2°37.704 32.176409 0.067781 0.355117  
2002-09-17 07:44:38 51°9.533 2°37.676 31.704205 0.067781 0.355122  
2002-09-17 07:44:43 51°9.524 2°37.648 31.308373 0.067781 0.355128  
2002-09-17 07:44:47 51°9.519 2°37.626 31.365996 0.067781 0.355133  
2002-09-17 07:44:53 51°9.509 2°37.592 31.842654 0.067781 0.355133  
2002-09-17 07:44:58 51°9.502 2°37.564 32.187348 0.067781 0.355144  
2002-09-17 07:45:02 51°9.495 2°37.543 32.187348 0.067781 0.355144  
2002-09-17 07:45:07 51°9.488 2°37.514 32.300009 0.067781 0.355149  
2002-09-17 07:45:13 51°9.479 2°37.481 31.766324 0.067781 0.355149  
2002-09-17 07:45:18 51°9.471 2°37.454 32.323733 0.067781 0.35516  
2002-09-17 07:45:23 51°9.463 2°37.426 32.966706 0.067781 0.35516  
2002-09-17 07:45:26 51°9.459 2°37.409 31.762945 0.067781 0.355165  
2002-09-17 07:45:33 51°9.448 2°37.37 31.762945 0.067781 0.355165  
2002-09-17 07:45:37 51°9.442 2°37.347 32.082866 0.067781 0.355171  
2002-09-17 07:45:43 51°9.432 2°37.314 31.600757 0.067677 0.35462  
2002-09-17 07:45:48 51°9.425 2°37.285 31.884147 0.067677 0.354615  
2002-09-17 07:45:53 51°9.417 2°37.258 31.996015 0.067677 0.354631  
2002-09-17 07:45:58 51°9.41 2°37.229 32.161215 0.067781 0.355192  
2002-09-17 07:46:03 51°9.402 2°37.2 32.161215 0.067781 0.355192  
2002-09-17 07:46:07 51°9.397 2°37.178 32.64478 0.067677 0.354631  
2002-09-17 07:46:14 51°9.385 2°37.139 31.824707 0.067781 0.355219  
2002-09-17 07:46:18 51°9.38 2°37.116 32.555319 0.067677 0.354642  
2002-09-17 07:46:23 51°9.372 2°37.088 31.486927 0.067677 0.354647  
2002-09-17 07:46:27 51°9.366 2°37.066 32.222246 0.067677 0.354658  
2002-09-17 07:46:33 51°9.357 2°37.032 32.222246 0.067677 0.354658  
2002-09-17 07:46:38 51°9.349 2°37.004 32.33537 0.067677 0.354674  
2002-09-17 07:46:42 51°9.344 2°36.981 33.532506 0.067781 0.35523  
2002-09-17 07:46:47 51°9.336 2°36.954 32.811659 0.067677 0.354669  
2002-09-17 07:46:53 51°9.327 2°36.921 31.802724 0.067677 0.354685  
2002-09-17 07:46:58 51°9.319 2°36.893 30.664949 0.067677 0.354679  
2002-09-17 07:47:03 51°9.312 2°36.865 30.664949 0.067677 0.354679  
2002-09-17 07:47:08 51°9.303 2°36.838 32.39493 0.067781 0.355257  
2002-09-17 07:47:14 51°9.294 2°36.804 29.861405 0.067677 0.354696  
2002-09-17 07:47:18 51°9.288 2°36.782 32.201199 0.067677 0.354696  
2002-09-17 07:47:23 51°9.28 2°36.754 32.622416 0.067677 0.354696  
2002-09-17 07:47:27 51°9.274 2°36.731 31.736185 0.067677 0.354706  
2002-09-17 07:47:33 51°9.265 2°36.697 31.736185 0.067677 0.354706  
2002-09-17 07:47:38 51°9.257 2°36.669 32.62528 0.067677 0.354701  
2002-09-17 07:47:43 51°9.251 2°36.64 31.839485 0.067677 0.354701  
2002-09-17 07:47:47 51°9.244 2°36.618 32.178295 0.067677 0.354723  
2002-09-17 07:47:54 51°9.234 2°36.578 29.863773 0.067677 0.354717  
2002-09-17 07:47:58 51°9.228 2°36.556 32.235886 0.067677 0.354739  
2002-09-17 07:48:03 51°9.22 2°36.528 32.235886 0.067677 0.354739  
2002-09-17 07:48:07 51°9.215 2°36.505 32.264666 0.067677 0.354728  
2002-09-17 07:48:13 51°9.205 2°36.471 29.318536 0.067677 0.354739  
2002-09-17 07:48:18 51°9.198 2°36.443 31.583824 0.067677 0.354733  
2002-09-17 07:48:23 51°9.19 2°36.416 28.705138 0.067677 0.354744  
2002-09-17 07:48:27 51°9.184 2°36.393 30.359471 0.067677 0.354755  
2002-09-17 07:48:33 51°9.175 2°36.359 30.359471 0.067677 0.354755  
2002-09-17 07:48:38 51°9.167 2°36.331 30.366178 0.067677 0.354744  
2002-09-17 07:48:43 51°9.16 2°36.303 31.020438 0.067677 0.35476  
2002-09-17 07:48:47 51°9.153 2°36.281 30.626744 0.067677 0.35476  
2002-09-17 07:48:53 51°9.144 2°36.247 30.893501 0.067677 0.35476  
2002-09-17 07:48:58 51°9.137 2°36.219 30.909297 0.067677 0.354766  
2002-09-17 07:49:03 51°9.128 2°36.192 30.909297 0.067677 0.354766  
2002-09-17 07:49:07 51°9.123 2°36.169 28.707471 0.067677 0.354771  
2002-09-17 07:49:13 51°9.113 2°36.136 31.110382 0.067677 0.354782  
2002-09-17 07:49:18 51°9.106 2°36.107 32.101508 0.067677 0.354777  
2002-09-17 07:49:22 51°9.1 2°36.085 28.945151 0.067677 0.354803  
2002-09-17 07:49:27 51°9.093 2°36.056 31.312153 0.067677 0.354798  
2002-09-17 07:49:33 51°9.084 2°36.023 31.312153 0.067677 0.354798  
2002-09-17 07:49:38 51°9.076 2°35.995 30.484846 0.067677 0.354803  
2002-09-17 07:49:43 51°9.068 2°35.967 31.149145 0.067677 0.354809  
2002-09-17 07:49:47 51°9.061 2°35.945 28.860945 0.067677 0.354814  
2002-09-17 07:49:54 51°9.051 2°35.905 30.888339 0.067677 0.354814  
2002-09-17 07:49:58 51°9.044 2°35.883 30.374219 0.067677 0.354809  
2002-09-17 07:50:03 51°9.037 2°35.855 30.374219 0.067677 0.354809  
2002-09-17 07:50:08 51°9.029 2°35.827 30.948824 0.067677 0.354814  
2002-09-17 07:50:14 51°9.02 2°35.794 30.492348 0.067677 0.35482  
2002-09-17 07:50:18 51°9.013 2°35.772 28.426533 0.067677 0.354825  
2002-09-17 07:50:23 51°9.006 2°35.743 30.322552 0.067677 0.354836  
2002-09-17 07:50:28 51°8.998 2°35.715 31.721559 0.067677 0.354841  
2002-09-17 07:50:33 51°8.991 2°35.687 31.721559 0.067677 0.354841  
2002-09-17 07:50:38 51°8.983 2°35.659 31.268684 0.067677 0.354841  
2002-09-17 07:50:43 51°8.976 2°35.631 31.892581 0.067677 0.354847  
2002-09-17 07:50:46 51°8.971 2°35.613 29.574385 0.067677 0.354857  
2002-09-17 07:50:53 51°8.961 2°35.574 32.091518 0.067677 0.354863  
2002-09-17 07:50:58 51°8.952 2°35.546 29.487434 0.067677 0.354868  
2002-09-17 07:51:03 51°8.946 2°35.517 29.487434 0.067677 0.354868  
2002-09-17 07:51:07 51°8.939 2°35.496 31.680392 0.067677 0.354874  
2002-09-17 07:51:14 51°8.928 2°35.457 33.605093 0.067677 0.354874  
2002-09-17 07:51:18 51°8.922 2°35.433 32.206239 0.067677 0.354879  
2002-09-17 07:51:23 51°8.915 2°35.406 31.95417 0.067677 0.354884  
2002-09-17 07:51:28 51°8.907 2°35.378 29.024402 0.067677 0.354901  
2002-09-17 07:51:33 51°8.899 2°35.349 29.024402 0.067677 0.354901  
2002-09-17 07:51:38 51°8.891 2°35.321 31.390114 0.067677 0.354901  
2002-09-17 07:51:43 51°8.885 2°35.293 31.271564 0.067677 0.354901  
2002-09-17 07:51:47 51°8.878 2°35.27 30.13216 0.067677 0.354911  
2002-09-17 07:51:54 51°8.868 2°35.231 29.086392 0.067677 0.354917  
2002-09-17 07:51:58 51°8.862 2°35.208 31.278989 0.067677 0.354911  
2002-09-17 07:52:03 51°8.854 2°35.18 31.278989 0.067677 0.354911  
2002-09-17 07:52:06 51°8.85 2°35.163 32.234447 0.067677 0.354922  
2002-09-17 07:52:13 51°8.839 2°35.124 30.709743 0.067677 0.354933  
2002-09-17 07:52:18 51°8.831 2°35.096 32.270215 0.067677 0.354944  
2002-09-17 07:52:23 51°8.823 2°35.068 32.017771 0.067677 0.354944  
2002-09-17 07:52:28 51°8.815 2°35.04 30.963389 0.067677 0.354944  
2002-09-17 07:52:33 51°8.808 2°35.012 30.963389 0.067677 0.354944  
2002-09-17 07:52:38 51°8.799 2°34.985 32.378377 0.067677 0.354955  
2002-09-17 07:52:43 51°8.792 2°34.955 31.510799 0.067677 0.354955  
2002-09-17 07:52:47 51°8.786 2°34.933 31.370709 0.067677 0.354965  
2002-09-17 07:52:53 51°8.776 2°34.9 31.139169 0.067677 0.354965  
2002-09-17 07:52:58 51°8.769 2°34.871 29.733117 0.067677 0.354965  
2002-09-17 07:53:03 51°8.761 2°34.844 29.733117 0.067677 0.354965  
2002-09-17 07:53:07 51°8.755 2°34.82 29.447351 0.067677 0.354982  
2002-09-17 07:53:13 51°8.747 2°34.786 31.935286 0.067677 0.354971  
2002-09-17 07:53:18 51°8.738 2°34.759 31.73822 0.067677 0.354992  
2002-09-17 07:53:23 51°8.731 2°34.731 31.682981 0.067677 0.354987  
2002-09-17 07:53:27 51°8.724 2°34.708 32.078745 0.067677 0.354998  
2002-09-17 07:53:34 51°8.714 2°34.668 32.078745 0.067677 0.354998  
2002-09-17 07:53:38 51°8.708 2°34.647 31.059873 0.067677 0.354992  
2002-09-17 07:53:42 51°8.701 2°34.624 28.979816 0.067677 0.355003  
2002-09-17 07:53:47 51°8.694 2°34.595 29.79704 0.067677 0.354998  
2002-09-17 07:53:53 51°8.684 2°34.562 32.892976 0.067677 0.355014  
2002-09-17 07:53:58 51°8.676 2°34.534 31.405496 0.067677 0.35502  
2002-09-17 07:54:03 51°8.669 2°34.505 31.405496 0.067677 0.35502  
2002-09-17 07:54:08 51°8.661 2°34.477 31.990412 0.067677 0.35502  
2002-09-17 07:54:14 51°8.651 2°34.445 32.198662 0.067677 0.355014  
2002-09-17 07:54:17 51°8.646 2°34.428 29.569666 0.067677 0.355014  
2002-09-17 07:54:23 51°8.637 2°34.395 30.2937 0.067677 0.35503  
2002-09-17 07:54:28 51°8.628 2°34.367 31.807928 0.067677 0.35503  
2002-09-17 07:54:33 51°8.62 2°34.34 31.807928 0.067677 0.35503  
2002-09-17 07:54:38 51°8.61 2°34.313 32.323733 0.067677 0.355036  
2002-09-17 07:54:42 51°8.603 2°34.291 32.195782 0.067677 0.355036  
2002-09-17 07:54:47 51°8.594 2°34.265 29.979522 0.067677 0.355052  
2002-09-17 07:54:53 51°8.582 2°34.234 30.986694 0.067677 0.355057  
2002-09-17 07:54:58 51°8.571 2°34.208 29.632522 0.067677 0.355047  
2002-09-17 07:55:03 51°8.563 2°34.18 29.632522 0.067677 0.355047  
2002-09-17 07:55:07 51°8.553 2°34.161 31.18643 0.067677 0.355079  
2002-09-17 07:55:13 51°8.542 2°34.129 32.319557 0.067677 0.355068  
2002-09-17 07:55:18 51°8.531 2°34.105 32.879791 0.067677 0.35509  
2002-09-17 07:55:23 51°8.521 2°34.079 32.484543 0.067677 0.355079  
2002-09-17 07:55:27 51°8.511 2°34.06 29.080928 0.067677 0.355079  
2002-09-17 07:55:33 51°8.498 2°34.028 29.080928 0.067677 0.355079  
2002-09-17 07:55:38 51°8.487 2°34.004 31.534526 0.067677 0.35509  
2002-09-17 07:55:43 51°8.476 2°33.98 31.080192 0.067677 0.355095  
2002-09-17 07:55:47 51°8.467 2°33.959 31.188479 0.067677 0.35509  
2002-09-17 07:55:53 51°8.454 2°33.928 30.653476 0.067677 0.355095  
2002-09-17 07:55:58 51°8.444 2°33.903 31.219911 0.067677 0.355106  
2002-09-17 07:56:03 51°8.432 2°33.879 31.219911 0.067677 0.355106  
2002-09-17 07:56:07 51°8.424 2°33.858 29.291543 0.067574 0.354544  
2002-09-17 07:56:14 51°8.408 2°33.822 30.800961 0.067677 0.355111  
2002-09-17 07:56:18 51°8.399 2°33.803 30.997178 0.067677 0.355122  
2002-09-17 07:56:23 51°8.389 2°33.777 28.886195 0.067677 0.355117  
2002-09-17 07:56:27 51°8.38 2°33.756 30.998536 0.067677 0.355128  
2002-09-17 07:56:33 51°8.367 2°33.726 30.998536 0.067677 0.355128  
2002-09-17 07:56:38 51°8.356 2°33.701 31.736978 0.067677 0.355133  
2002-09-17 07:56:43 51°8.345 2°33.675 30.82833 0.067677 0.355138  
2002-09-17 07:56:48 51°8.335 2°33.65 31.285825 0.067574 0.354576  
2002-09-17 07:56:53 51°8.324 2°33.624 30.602033 0.067574 0.354582  
2002-09-17 07:56:58 51°8.313 2°33.598 31.543759 0.067677 0.355149  
2002-09-17 07:57:03 51°8.302 2°33.573 31.543759 0.067677 0.355149  
2002-09-17 07:57:07 51°8.294 2°33.553 29.014929 0.067574 0.354598  
2002-09-17 07:57:14 51°8.279 2°33.516 30.231989 0.067574 0.354598  
2002-09-17 07:57:18 51°8.271 2°33.495 29.628976 0.067574 0.354592  
2002-09-17 07:57:23 51°8.26 2°33.47 28.983964 0.067574 0.354625  
2002-09-17 07:57:27 51°8.252 2°33.449 30.750771 0.067677 0.355171  
2002-09-17 07:57:33 51°8.239 2°33.419 30.750771 0.067677 0.355171  
2002-09-17 07:57:38 51°8.229 2°33.394 29.974193 0.067574 0.35463  
2002-09-17 07:57:43 51°8.218 2°33.368 33.202469 0.067574 0.354636  
2002-09-17 07:57:47 51°8.209 2°33.349 30.326768 0.067574 0.354641  
2002-09-17 07:57:54 51°8.194 2°33.314 33.315521 0.067574 0.354652  
2002-09-17 07:57:58 51°8.185 2°33.294 30.037313 0.067574 0.354641  
2002-09-17 07:58:03 51°8.174 2°33.269 30.037313 0.067574 0.354641  
2002-09-17 07:58:08 51°8.163 2°33.243 32.174317 0.067574 0.354652  
2002-09-17 07:58:14 51°8.151 2°33.213 29.806274 0.067574 0.354641  
2002-09-17 07:58:18 51°8.141 2°33.194 31.950111 0.067574 0.354663  
2002-09-17 07:58:23 51°8.13 2°33.169 31.979101 0.067574 0.354663  
2002-09-17 07:58:28 51°8.119 2°33.144 30.27078 0.067574 0.354657  
2002-09-17 07:58:33 51°8.108 2°33.118 30.27078 0.067574 0.354657  
2002-09-17 07:58:38 51°8.097 2°33.094 32.960494 0.067574 0.354673  
2002-09-17 07:58:43 51°8.086 2°33.069 31.558453 0.067574 0.354673  
2002-09-17 07:58:47 51°8.077 2°33.048 32.600284 0.067574 0.354673  
2002-09-17 07:58:54 51°8.062 2°33.013 31.780804 0.067574 0.354684  
2002-09-17 07:58:59 51°8.05 2°32.989 31.782424 0.067574 0.354695  
2002-09-17 07:59:03 51°8.042 2°32.968 31.782424 0.067574 0.354695  
2002-09-17 07:59:07 51°8.033 2°32.948 30.821977 0.067574 0.35469  
2002-09-17 07:59:13 51°8.02 2°32.919 30.90839 0.067574 0.354706  
2002-09-17 07:59:18 51°8.009 2°32.894 30.330457 0.067574 0.354711  
2002-09-17 07:59:23 51°7.998 2°32.869 32.263227 0.067574 0.354722  
2002-09-17 07:59:26 51°7.991 2°32.854 32.038903 0.067574 0.354711  
2002-09-17 07:59:33 51°7.976 2°32.819 32.038903 0.067574 0.354711  
2002-09-17 07:59:38 51°7.965 2°32.795 32.489462 0.067574 0.354727  
2002-09-17 07:59:43 51°7.954 2°32.769 28.681047 0.067574 0.354722  
2002-09-17 07:59:47 51°7.945 2°32.75 31.902081 0.067574 0.354727  
2002-09-17 07:59:53 51°7.932 2°32.721 32.18409 0.067574 0.354738  
2002-09-17 07:59:58 51°7.921 2°32.696 30.37134 0.067574 0.354738  
2002-09-17 08:00:03 51°7.91 2°32.671 30.37134 0.067574 0.354738  
2002-09-17 08:00:09 51°7.896 2°32.643 29.299948 0.067574 0.354738  
2002-09-17 08:00:13 51°7.888 2°32.623 29.765723 0.067574 0.354755  
2002-09-17 08:00:18 51°7.877 2°32.599 31.595124 0.067574 0.354771  
2002-09-17 08:00:23 51°7.865 2°32.575 31.317945 0.067574 0.354765  
2002-09-17 08:00:27 51°7.856 2°32.555 31.682256 0.067574 0.354776  
2002-09-17 08:00:34 51°7.84 2°32.522 31.682256 0.067574 0.354776  
2002-09-17 08:00:38 51°7.831 2°32.504 30.457143 0.067574 0.354782  
2002-09-17 08:00:43 51°7.82 2°32.479 28.772879 0.067574 0.354771